Regional Weather Roundup
Issued by NWS

Home | Current Version | Previous Version | Graphics & Text | Print | Product List | Glossary Off
Versions: 1 2 3 4 5 6 7 8 9 10 11 12 13 14 15 16 17 18 19 20 21 22 23 24 25 26 27 28 29 30 31 32 33 34 35 36 37 38 39 40 41 42 43 44 45 46 47 48 49 50

000
ASUS43 KDMX 080008
RWRIA

WEATHER ROUNDUP FOR IOWA
NATIONAL WEATHER SERVICE DES MOINES IA
600 PM CST SUN FEB 07 2016

NOTE: "FAIR" INDICATES FEW OR NO CLOUDS BELOW 12,000 FEET WITH NO
SIGNIFICANT WEATHER AND/OR OBSTRUCTIONS TO VISIBILITY.

* - THESE STATIONS ARE NOT NWS STATIONS...THUS NOT UNDER NWS
QUALITY CONTROL.  THEY ALSO DO NOT REPORT WEATHER SUCH
AS PRECIPITATION OR FOG.

IAZ001>003-012>014-020>022-031>034-043>046-080100-
   NORTHWEST IOWA

CITY           SKY/WX    TMP DP  RH WIND       PRES   REMARKS
CARROLL *      CLOUDY    34  32  93 NW24G32   29.86R WCI  21
CHEROKEE *     FLURRIES  32  28  84 NW20G32   29.88R WCI  20
DENISON *      CLOUDY    34  30  86 NW22      29.88R WCI  22
LE MARS *      CLOUDY    34  27  75 NW25G38   29.93R WCI  21
ORANGE CITY *  CLOUDY    30  25  80 NW25G37   29.89R WCI  16
SHELDON *      FLURRIES  30  27  86 NW32G40   29.86R WCI  15
SIOUX CITY     FLURRIES  35  26  69 NW25G40   29.94R WCI  23
6HR MIN TEMP:  35; 6HR MAX TEMP:  43; 6HR PCP: TRACE;

SPENCER        LGT SNOW  31  27  85 NW24G35   29.84R FOG     WCI  17
6HR MIN TEMP:  31; 6HR MAX TEMP:  38; 6HR PCP: TRACE;

STORM LAKE *   LGT SNOW  32  32 100 NW29G36   29.85R WCI  18
$$

IAZ055>058-069>071-079>083-090>094-080100-
   SOUTHWEST IOWA

CITY           SKY/WX    TMP DP  RH WIND       PRES   REMARKS
ATLANTIC *     LGT SNOW  34  32  93 W18G25    29.91S WCI  23
AUDUBON *      FLURRIES  34  30  86 W16G25    29.89S WCI  23
CLARINDA *     MIX PCPN  36  30  80 W15G25    29.98S WCI  26
COUNCIL BLFS * FLURRIES  34  30  86 NW18G26   29.95R WCI  23
CRESTON *      LGT SNOW  34  32  93 W20       29.91S WCI  22
HARLAN  *      FLURRIES  34  32  93 NW26G35   29.94S WCI  21
LAMONI         CLOUDY    37  27  67 NW30      29.91R WCI  24
6HR MIN TEMP:  37; 6HR MAX TEMP:  47;

RED OAK *      FLURRIES  34  32  93 W17G24    29.95F WCI  23
SHENANDOAH *   CLOUDY    36  32  87 W20G28    29.99R WCI  25
$$

IAZ047>049-059>061-072>074-084-080100-
   CENTRAL IOWA

CITY           SKY/WX    TMP DP  RH WIND       PRES   REMARKS
AMES           CLOUDY    34  30  85 W17G25    29.83S WCI  23
6HR MIN TEMP:  34; 6HR MAX TEMP:  41;

ANKENY *       MIX PCPN  36  32  87 W18       29.85S WCI  25
BOONE *        CLOUDY    34  32  93 W17G24    29.82R WCI  23
CHARITON *     MOCLDY    39  27  60 W17G24    29.87S WCI  30
DES MOINES     FLURRIES  35  30  82 W14G25    29.87R WCI  26
6HR MIN TEMP:  35; 6HR MAX TEMP:  45; 6HR PCP: TRACE;

GRINNELL*      CLOUDY    36  28  75 W15       29.84R WCI  26
KNOXVILLE *    MIX PCPN  34  30  86 W22G36    29.86R WCI  22
MARSHALLTOWN   CLOUDY    35  29  78 W18       29.80S WCI  24
6HR MIN TEMP:  35; 6HR MAX TEMP:  39;

NEWTON *       CLOUDY    36  30  80 NW16G25   29.84R WCI  26
PELLA *        CLOUDY    37  28  68 W14G29    29.87R WCI  28
$$

IAZ004>006-015-016-023>025-035-036-080100-
   NORTH CENTRAL IOWA

CITY           SKY/WX    TMP DP  RH WIND       PRES   REMARKS
ALGONA *       CLOUDY    34  30  86 NW26      29.79R WCI  21
CLARION *      FLURRIES  34  32  93 W22G28    29.79R WCI  22
ESTHERVILLE    CLOUDY    32  28  85 NW32G38   29.81R WCI  17
6HR MIN TEMP:  31; 6HR MAX TEMP:  37; 6HR PCP: TRACE;

FORT DODGE *   CLOUDY    34  28  80 W15G21    29.82S WCI  24
MASON CITY     FLURRIES  33  31  92 W20       29.76R WCI  21
6HR MIN TEMP:  33; 6HR MAX TEMP:  39; 6HR PCP: TRACE;

FOREST CITY *  FLURRIES  32  32 100 W23G29    29.75R WCI  19
WEBSTER CITY * MOCLDY    36  32  87 W21       29.79S WCI  24
IOWA FALLS *   CLOUDY    36  32  87 W21       29.79S WCI  24
$$

IAZ007>011-017>019-026>030-037>042-050>054-066-080100-
   NORTHEAST IOWA

CITY           SKY/WX    TMP DP  RH WIND       PRES   REMARKS
CEDAR RAPIDS   CLEAR     34  29  82 W12       29.79S WCI  25
6HR MIN TEMP:  34; 6HR MAX TEMP:  43;

CHARLES CITY * MIX PCPN  36  34  93 W18       29.74S WCI  25
CLINTON *      CLEAR     34  30  85 W10       29.80S WCI  26
DECORAH *      CLOUDY    36  28  75 W10G18    29.69F WCI  28
DUBUQUE        CLEAR     34  29  82 W15       29.74S WCI  24
6HR MIN TEMP:  34; 6HR MAX TEMP:  38;

MONTICELLO *   CLEAR     36  30  80 W12       29.77S WCI  27
OELWEIN *      MOCLDY    34  30  86 W16       29.75S WCI  23
WATERLOO       CLOUDY    36  28  73 W17       29.77R WCI  26
6HR MIN TEMP:  35; 6HR MAX TEMP:  40;

$$

IAZ064-065-067-068-078-080100-
   EAST CENTRAL IOWA

CITY           SKY/WX    TMP DP  RH WIND       PRES   REMARKS
DAVENPORT      MOCLDY    37  28  70 W13       29.81S WCI  29
6HR MIN TEMP:  36; 6HR MAX TEMP:  45;

IOWA CITY      MOCLDY    36  28  73 W7        29.83F WCI  30
6HR MIN TEMP:  36; 6HR MAX TEMP:  46;

MT. PLEASANT * CLEAR     41  28  60 W7        29.85F
MUSCATINE *    CLEAR     39  28  65 W13       29.84S WCI  32
QUAD CITIES    CLEAR     39  27  62 W12       29.81R WCI  32
6HR MIN TEMP:  39; 6HR MAX TEMP:  47;

$$

IAZ062-063-075>077-085>089-095>099-080100-
   SOUTHEAST IOWA

CITY           SKY/WX    TMP DP  RH WIND       PRES   REMARKS
BURLINGTON     PTCLDY    40  27  59 W8        29.85R WCI  34
6HR MIN TEMP:  40; 6HR MAX TEMP:  48;

FAIRFIELD *    MOCLDY    39  27  60 W21       29.84F WCI  29
FORT MADISON * PTCLDY    39  27  60 W14G22    29.87R WCI  31
KEOKUK *       MOCLDY    43  25  49 W17G24    29.87R
OSKALOOSA *    CLOUDY    37  28  70 W10       29.85S WCI  29
CENTERVILLE *    N/A    N/A N/A N/A MISG        N/A
OTTUMWA        CLOUDY    37  28  70 W17G26    29.85S WCI  27
6HR MIN TEMP:  36; 6HR MAX TEMP:  48; 6HR PCP: TRACE;

WASHINGTON *   PTCLDY    37  28  70 W8        29.85S WCI  31
$$

ABBREVIATIONS USED IN REMARKS
   TC - TEMPERATURES IN CELSIUS
  WCI - WIND CHILL INDEX
   HX - HEAT INDEX
  VSB - VISIBILITY
$$




USA.gov is the U.S. government's official web portal to all federal, state and local government web resources and services.